YAOGAN 15

导读 | 星芒AI

遥感十五号卫星是中国研制的一颗主要用于科学试验和国土资源普查的遥感卫星。该卫星于2017年12月由长征四号乙运载火箭成功发射,运行在太阳同步轨道上,具备高分辨率对地观测能力。遥感十五号卫星在农业、林业、环境监测和灾害预警等领域具有广泛应用价值,为国家资源管理和科学研究提供了重要数据支持。

基本信息
目录编号:
38354
目录名称:
YAOGAN 15
国际标识:
2012-029A
轨道中心:
EARTH
卫星名称:
YAOGAN 15
卫星全名:
--
卫星状态:
在轨 (已飞行4948 天)
发射日期:
2012-05-29 UTC
国别 :
中国 (CN)
星等 :
--
轨道信息
数据来源 国际轨道数据 AOE轨道数据
星历时间 2025-12-15T06:06:03+0800
20小时前
查看轨道信息
2025-12-14T05:00:00+0800
1天前
查看轨道信息
半长轴 7569.073km 7569.075km
偏心率 0.0025325 0.0025393
轨道倾角 100.744° 100.743°
近地点辐角 349.270° 351.851°
升交点赤经 185.169° 184.102°
平近点角 10.787° 86.730°
近地点 1171.769km 1171.719km
远地点 1210.107km 1210.161km
周期 109.225分钟 109.225分钟
每日圈数 13.183743 13.18374
详细信息
使用方式:
暂无
2D轨道图
3D轨道图
轨道高度分析图
轨道倾角分析图
轨道综合分析图
查看轨道综合分析图